Location: Chandler
(33.3060°N, 111.8410°W)
Time: 03:38:50
(UTC-07:00)

Amateur Radio Satellites - All Passes

Search period start: 03 July 2015 03:08
Search period end: 04 July 2015 03:08
Location: Chandler, 33.3060°N, 111.8410°W

Satellite Date Start Highest point End Downlink Frequencies (MHz)
Time Altitude Azimuth
Gurwin Techsat 1B 03 Jul 03:10:47 03:16:04 67° 285° (WNW) 03:21:20 435.225
STARS 03 Jul 03:18:07 03:22:29 62° 259° (W) 03:26:50 437.465
HORYU 2 03 Jul 03:19:10 03:21:58 17° 93° (E) 03:24:58 437.375
Oscar 19 03 Jul 03:20:36 03:23:28 15° 293° (WNW) 03:26:06 437.125/150
JAS-2 03 Jul 03:22:33 03:28:57 45° 99° (E) 03:36:05 435.910
ITAMSAT 1 03 Jul 03:26:40 03:31:41 48° 287° (WNW) 03:36:39 435.822/435.867
AO-7 03 Jul 03:52:43 04:00:30 43° 100° (E) 04:08:21 29.400- 29.500
KKS-1 03 Jul 04:01:21 04:03:14 12° 269° (W) 04:04:52 437.445
MOZHAYETS 4 03 Jul 04:03:57 04:08:25 58° 76° (ENE) 04:12:55
Cosmos 2491 03 Jul 04:27:26 04:33:22 19° 276° (W) 04:38:45 435.465 / 435.565
Cosmos 2504 03 Jul 04:29:37 04:33:59 18° 86° (E) 04:38:43 435.465 / 435.565
HORYU 2 03 Jul 04:54:40 04:58:44 34° 287° (WNW) 05:02:45 437.375
YUBILEINY 03 Jul 04:56:11 05:03:18 26° 289° (WNW) 05:10:07 435.215
JAS-2 03 Jul 05:08:08 05:13:51 30° 290° (WNW) 05:19:54 435.910
RS-15 03 Jul 05:21:33 05:28:35 17° 332° (NNW) 05:35:16 29.354- 29.394
MOZHAYETS 4 03 Jul 05:45:35 05:46:06 10° 271° (W) 05:46:15
AO-7 03 Jul 05:45:39 05:53:12 38° 295° (WNW) 06:00:32 29.400- 29.500
CUTE-I 03 Jul 05:51:10 05:55:11 22° 94° (E) 05:59:21 437.470
CUBESAT XI-V 03 Jul 06:03:05 06:07:47 90° 263° (W) 06:12:31 437.345
VERMONT LUNAR 03 Jul 06:08:54 06:10:38 14° 143° (SE) 06:12:28 437.305
BEESAT 3 03 Jul 06:17:03 06:19:58 20° 111° (ESE) 06:23:02 437.485
Cosmos 2504 03 Jul 06:19:40 06:26:52 61° 279° (W) 06:33:55 435.465 / 435.565
STRAND 1 03 Jul 06:21:50 06:26:44 48° 73° (ENE) 06:31:42 437.568
Cubesat XI-IV 03 Jul 06:24:01 06:29:12 48° 99° (E) 06:34:22 437.490
BEESAT 2 03 Jul 06:27:06 06:30:03 20° 111° (ESE) 06:33:10 435.950
DANDE 03 Jul 06:35:39 06:39:10 15° 92° (E) 06:42:51 436.750
O/OREOS (USA 219) 03 Jul 06:48:59 06:53:00 34° 105° (ESE) 06:57:04 437.305
PRISM 03 Jul 06:55:29 06:59:37 71° 258° (WSW) 07:03:48 437.425
ISS 03 Jul 07:11:22 07:14:10 27° 131° (SE) 07:16:59 145.825
CUSAT 1 03 Jul 07:21:31 07:28:20 50° 96° (E) 07:33:43 437.405
CUTE-I 03 Jul 07:30:28 07:35:24 37° 289° (WNW) 07:40:15 437.470
AUBIESAT-1 03 Jul 07:35:23 07:37:51 20° 67° (ENE) 07:40:27 437.475
AIST 2 03 Jul 07:35:24 07:39:00 28° 112° (ESE) 07:42:42 435.215
GONETS M04 03 Jul 07:36:34 07:42:06 20° 84° (E) 07:48:09
PHONESAT 2.4 03 Jul 07:42:18 07:44:28 16° 143° (SE) 07:46:42 2401.200-2431.200
HO-68 03 Jul 07:43:12 07:46:58 16° 90° (E) 07:51:13 435.675
VERMONT LUNAR 03 Jul 07:44:12 07:47:18 76° 335° (NNW) 07:50:26 437.305
BRITE-PL 03 Jul 07:45:10 07:48:50 28° 96° (E) 07:52:27 437.365/2234.400
RS-15 03 Jul 07:46:13 07:47:59 10° 8° (N) 07:50:02 29.354- 29.394
CANX-2 03 Jul 07:50:53 07:50:54 10° 90° (E) 07:51:15 2200.000
BEESAT 3 03 Jul 07:54:14 07:57:47 28° 305° (NW) 08:01:18 437.485
STRAND 1 03 Jul 08:03:03 08:06:16 16° 268° (W) 08:09:13 437.568
BEESAT 2 03 Jul 08:04:24 08:07:58 28° 305° (NW) 08:11:32 435.950
Cubesat XI-IV 03 Jul 08:05:19 08:08:58 18° 293° (WNW) 08:12:23 437.490
M-CUBED/EXP-1 PRIME 03 Jul 08:07:27 08:10:43 78° 73° (ENE) 08:14:04 437.505
DANDE 03 Jul 08:14:26 08:22:17 80° 278° (W) 08:28:27 436.750
DOVE 4 03 Jul 08:18:58 08:22:16 23° 95° (E) 08:25:39 437.250
O/OREOS (USA 219) 03 Jul 08:29:30 08:32:34 17° 300° (WNW) 08:35:29 437.305
SEEDS 03 Jul 08:35:09 08:38:45 27° 96° (E) 08:42:24 437.485
ISS 03 Jul 08:47:57 08:50:34 22° 325° (NW) 08:53:10 145.825
AAUSAT CUBESAT 2 03 Jul 08:49:48 08:53:20 26° 96° (E) 08:56:55 437.432
Oscar 11 03 Jul 08:57:05 08:59:07 13° 91° (E) 09:01:23 145.826/435.025
GOMX 1 03 Jul 09:05:27 09:09:31 49° 285° (WNW) 09:13:30 467.674
CUSAT 1 03 Jul 09:05:54 09:10:55 21° 284° (WNW) 09:14:56 437.405
AUBIESAT-1 03 Jul 09:10:42 09:12:40 14° 262° (W) 09:14:31 437.475
CINEMA 3 03 Jul 09:14:10 09:18:11 47° 99° (E) 09:22:19 145.822/145.860
COMPASS 1 03 Jul 09:14:11 09:18:23 65° 100° (E) 09:22:35 437.405
AIST 2 03 Jul 09:14:12 09:17:35 22° 307° (NW) 09:20:56 435.215
DELFI C3 03 Jul 09:15:53 09:18:03 14° 92° (E) 09:20:24 145.870
PHONESAT 2.4 03 Jul 09:18:47 09:22:13 79° 335° (NNW) 09:25:40 2401.200-2431.200
CUTE 1.7 + AOD 2 03 Jul 09:19:49 09:24:04 65° 284° (WNW) 09:28:18 437.475
FUNcube-1 03 Jul 09:21:40 09:23:50 14° 92° (E) 09:26:14 145.935
VERMONT LUNAR 03 Jul 09:21:55 09:24:32 24° 351° (N) 09:27:10 437.305
CANX-2 03 Jul 09:23:01 09:27:12 52° 284° (WNW) 09:31:22 2200.000
BRITE-PL 03 Jul 09:24:18 09:27:13 18° 290° (WNW) 09:29:55 437.365/2234.400
HO-68 03 Jul 09:28:18 09:35:28 76° 287° (WNW) 09:42:36 435.675
UWE-3 03 Jul 09:29:27 09:32:53 24° 96° (E) 09:36:27 435.000/436.395/437.385
GONETS M04 03 Jul 09:29:28 09:38:15 71° 278° (W) 09:47:00
ANTELSAT 03 Jul 09:36:45 09:40:13 25° 72° (ENE) 09:43:45 437.575/2403.000
TIGRISAT 03 Jul 09:49:19 09:53:09 33° 73° (ENE) 09:57:01 435.000
QB50P1 03 Jul 09:56:02 09:58:34 16° 70° (ENE) 10:01:17 145.935-145.965
RS-15 03 Jul 09:56:41 10:06:15 29° 42° (NE) 10:16:30 29.354- 29.394
DOVE 4 03 Jul 09:56:49 09:59:58 21° 288° (WNW) 10:03:02 437.250
DANDE 03 Jul 10:04:27 10:05:54 10° 290° (WNW) 10:06:41 436.750
DX 1 03 Jul 10:06:38 10:09:15 16° 93° (E) 10:12:04 434.975-435.025
NANOSAT C BR1 03 Jul 10:09:56 10:13:15 23° 72° (ENE) 10:16:39 145.865
SEEDS 03 Jul 10:11:13 10:14:24 20° 289° (WNW) 10:17:27 437.485
CUBEBUG 2 03 Jul 10:11:22 10:15:35 76° 282° (WNW) 10:19:52 437.445
DUCHIFAT 1 03 Jul 10:17:05 10:20:38 27° 73° (ENE) 10:24:15 145.980
ZACube-1 03 Jul 10:19:23 10:23:37 79° 101° (ESE) 10:27:56 437.345
POLYITAN 1 03 Jul 10:20:15 10:24:01 32° 73° (ENE) 10:27:48 437.675
AAUSAT CUBESAT 2 03 Jul 10:25:39 10:28:48 20° 289° (WNW) 10:31:49 437.432
UNISAT 6 03 Jul 10:27:57 10:32:17 77° 259° (W) 10:36:34 437.425
UKube-1 03 Jul 10:28:43 10:32:23 27° 97° (E) 10:36:05 .
Oscar 11 03 Jul 10:31:26 10:35:31 41° 286° (WNW) 10:39:35 145.826/435.025
Cosmos 2499 03 Jul 10:35:27 10:42:26 65° 93° (E) 10:49:26 435.465 / 435.565
AISAT 03 Jul 10:38:13 10:41:30 21° 95° (E) 10:44:54 437.250
BUGSAT 1 03 Jul 10:39:34 10:43:21 33° 73° (ENE) 10:47:10 437.445
HUMSAT D 03 Jul 10:48:56 10:53:06 71° 101° (E) 10:57:18 437.325/437.525
DELFI C3 03 Jul 10:49:34 10:53:15 33° 286° (WNW) 10:56:54 145.870
QB50P2 03 Jul 10:49:37 10:53:52 76° 77° (ENE) 10:58:07 145.880/145.840
POPSAT HIP 1 03 Jul 10:50:41 10:54:56 76° 77° (ENE) 10:59:10 437.405
CINEMA 3 03 Jul 10:53:42 10:55:05 11° 291° (WNW) 10:56:13 145.822/145.860
FUNcube-1 03 Jul 10:56:25 11:00:19 37° 286° (WNW) 11:04:16 145.935
PHONESAT 2.4 03 Jul 10:57:33 11:00:33 27° 351° (N) 11:03:33 2401.200-2431.200
VERMONT LUNAR 03 Jul 10:59:25 11:02:02 23° 8° (N) 11:04:40 437.305
CUBEBUG 1 03 Jul 11:00:24 11:03:26 19° 94° (E) 11:06:36 437.445
50 SAT 03 Jul 11:02:27 11:06:13 47° 99° (E) 11:10:02 437.505
ESTCUBE 1 03 Jul 11:05:13 11:09:04 27° 96° (E) 11:12:56 437.505/2401.250
UWE-3 03 Jul 11:06:02 11:09:20 22° 288° (WNW) 11:12:33 435.000/436.395/437.385
ANTELSAT 03 Jul 11:13:36 11:16:59 21° 265° (W) 11:20:14 437.575/2403.000
HO-68 03 Jul 11:19:46 11:22:14 12° 302° (WNW) 11:24:10 435.675
VELOX 1 03 Jul 11:27:03 11:31:29 80° 101° (E) 11:35:52 145.980
TIGRISAT 03 Jul 11:27:19 11:30:02 16° 267° (W) 11:32:33 435.000
QB50P1 03 Jul 11:30:19 11:34:11 34° 263° (W) 11:38:03 145.935-145.965
GONETS M04 03 Jul 11:35:24 11:37:02 10° 300° (WNW) 11:37:48
DX 1 03 Jul 11:41:42 11:45:39 34° 287° (WNW) 11:49:31 434.975-435.025
NANOSAT C BR1 03 Jul 11:45:35 11:49:01 23° 265° (W) 11:52:20 145.865
DUCHIFAT 1 03 Jul 11:53:20 11:56:27 19° 266° (W) 11:59:26 145.980
POLYITAN 1 03 Jul 11:57:12 12:00:00 17° 267° (W) 12:02:38 437.675
UKube-1 03 Jul 12:05:07 12:08:22 20° 290° (WNW) 12:11:29 .
SPROUT 03 Jul 12:06:34 12:10:20 30° 97° (E) 12:14:07 437.525
RS-15 03 Jul 12:08:19 12:20:11 81° 244° (WSW) 12:32:24 29.354- 29.394
AISAT 03 Jul 12:14:20 12:18:05 27° 288° (WNW) 12:21:44 437.250
BUGSAT 1 03 Jul 12:16:12 12:18:55 16° 267° (W) 12:21:26 437.445
Cosmos 2499 03 Jul 12:31:47 12:36:18 17° 292° (WNW) 12:40:27 435.465 / 435.565
CUBEBUG 1 03 Jul 12:36:04 12:39:50 29° 288° (WNW) 12:43:31 437.445
VERMONT LUNAR 03 Jul 12:36:08 12:39:17 70° 23° (NNE) 12:42:28 437.305
PHONESAT 2.4 03 Jul 12:36:10 12:39:09 26° 8° (N) 12:42:10 2401.200-2431.200
ESTCUBE 1 03 Jul 12:42:14 12:45:49 22° 289° (WNW) 12:49:15 437.505/2401.250
Gurwin Techsat 1B 03 Jul 12:51:00 12:53:23 14° 66° (ENE) 12:56:05 435.225
Oscar 19 03 Jul 12:52:12 12:57:09 52° 74° (ENE) 13:02:09 437.125/150
TISAT 1 03 Jul 12:52:41 12:56:52 73° 103° (ESE) 13:01:01 437.305
SWISSCUBE 03 Jul 13:01:38 13:03:54 14° 91° (E) 13:06:26 437.505
ITAMSAT 1 03 Jul 13:03:02 13:06:17 17° 67° (ENE) 13:09:44 435.822/435.867
ITUPSAT 1 03 Jul 13:06:20 13:08:38 14° 91° (E) 13:11:12 437.325
YUBILEINY 03 Jul 13:14:01 13:20:12 22° 68° (ENE) 13:26:48 435.215
Cosmos 2491 03 Jul 13:32:44 13:36:41 15° 82° (E) 13:41:23 435.465 / 435.565
SPROUT 03 Jul 13:43:16 13:46:13 18° 290° (WNW) 13:49:01 437.525
VERMONT LUNAR 03 Jul 14:13:52 14:15:59 16° 216° (SW) 14:18:04 437.305
PHONESAT 2.4 03 Jul 14:14:02 14:17:31 76° 24° (NNE) 14:21:00 2401.200-2431.200
KKS-1 03 Jul 14:19:09 14:21:00 13° 92° (E) 14:23:05 437.445
BEESAT 03 Jul 14:21:51 14:26:40 80° 284° (WNW) 14:31:27 436.000
RS-15 03 Jul 14:24:38 14:31:28 16° 258° (WSW) 14:37:14 29.354- 29.394
Gurwin Techsat 1B 03 Jul 14:27:38 14:32:53 64° 259° (W) 14:38:11 435.225
Oscar 19 03 Jul 14:34:00 14:36:53 14° 269° (W) 14:39:28 437.125/150
SWISSCUBE 03 Jul 14:37:26 14:42:05 49° 286° (WNW) 14:46:40 437.505
ITAMSAT 1 03 Jul 14:40:23 14:45:25 48° 260° (W) 14:50:28 435.822/435.867
ITUPSAT 1 03 Jul 14:42:11 14:46:51 49° 286° (WNW) 14:51:27 437.325
AO-7 03 Jul 14:47:11 14:54:44 41° 66° (ENE) 15:02:26 29.400- 29.500
YUBILEINY 03 Jul 15:09:10 15:17:50 68° 267° (W) 15:26:30 435.215
STARS 03 Jul 15:12:12 15:16:06 32° 97° (E) 15:20:03 437.465
SO-50 03 Jul 15:15:09 15:15:34 10° 108° (ESE) 15:16:21 436.795
JAS-2 03 Jul 15:16:17 15:21:28 85° 77° (ENE) 15:26:46 435.910
ISS 03 Jul 15:17:52 15:21:03 55° 41° (NE) 15:24:14 145.825
Cosmos 2491 03 Jul 15:23:45 15:32:36 88° 274° (W) 15:41:29 435.465 / 435.565
AIST 1 03 Jul 15:27:13 15:31:35 72° 96° (E) 15:35:59
PCSat 03 Jul 15:28:49 15:34:13 79° 115° (ESE) 15:39:40 145.827
HORYU 2 03 Jul 15:48:17 15:52:39 63° 259° (W) 15:57:02 437.375
PHONESAT 2.4 03 Jul 15:52:52 15:55:17 17° 217° (SW) 15:57:39 2401.200-2431.200
KKS-1 03 Jul 15:53:41 15:57:54 44° 286° (WNW) 16:02:06 437.445
JUGNU 03 Jul 15:56:00 15:59:20 15° 168° (SSE) 16:02:44 437.505
MOZHAYETS 4 03 Jul 16:04:07 16:07:24 20° 93° (E) 16:10:50
Cosmos 2504 03 Jul 16:15:50 16:22:52 37° 76° (ENE) 16:30:30 435.465 / 435.565
BEESAT 3 03 Jul 16:16:03 16:19:56 45° 58° (ENE) 16:23:46 437.485
BEESAT 2 03 Jul 16:26:46 16:30:42 46° 58° (ENE) 16:34:34 435.950
AO-7 03 Jul 16:39:51 16:47:32 39° 261° (W) 16:55:08 29.400- 29.500
SRMSAT 03 Jul 16:48:19 16:49:23 11° 164° (SSE) 16:50:35 437.500
STARS 03 Jul 16:49:19 16:52:21 18° 290° (WNW) 16:55:13 437.465
SO-50 03 Jul 16:50:55 16:55:34 68° 300° (WNW) 17:00:23 436.795
O/OREOS (USA 219) 03 Jul 17:02:49 17:06:55 34° 65° (ENE) 17:11:05 437.305
CUTE-I 03 Jul 17:09:01 17:13:15 25° 69° (ENE) 17:17:38 437.470
PCSat 03 Jul 17:15:40 17:18:22 13° 312° (NW) 17:20:48 145.827
Cosmos 2491 03 Jul 17:26:07 17:30:57 15° 296° (WNW) 17:35:05 435.465 / 435.565
AIST 2 03 Jul 17:38:41 17:42:52 70° 61° (ENE) 17:46:58 435.215
MOZHAYETS 4 03 Jul 17:40:32 17:44:42 32° 287° (WNW) 17:48:48
Cubesat XI-IV 03 Jul 17:41:50 17:47:01 53° 74° (ENE) 17:52:16 437.490
JUGNU 03 Jul 17:43:18 17:47:44 22° 177° (S) 17:52:11 437.505
BEESAT 3 03 Jul 17:56:08 17:57:31 11° 251° (WSW) 17:58:39 437.485
CUBESAT XI-V 03 Jul 18:04:27 18:08:34 31° 96° (E) 18:12:42 437.345
BEESAT 2 03 Jul 18:07:03 18:08:22 11° 251° (WSW) 18:09:27 435.950
Cosmos 2504 03 Jul 18:09:09 18:16:16 37° 270° (W) 18:23:39 435.465 / 435.565
SRMSAT 03 Jul 18:33:53 18:37:56 19° 172° (S) 18:42:00 437.500
STRAND 1 03 Jul 18:37:16 18:41:14 23° 95° (E) 18:45:18 437.568
PRISM 03 Jul 18:42:37 18:45:48 21° 95° (E) 18:49:03 437.425
O/OREOS (USA 219) 03 Jul 18:43:04 18:46:07 17° 258° (WSW) 18:49:00 437.305
CUTE-I 03 Jul 18:48:20 18:53:11 34° 263° (W) 18:58:01 437.470
BRITE-PL 03 Jul 18:50:59 18:55:34 28° 72° (ENE) 19:00:03 437.365/2234.400
DANDE 03 Jul 19:02:42 19:05:14 35° 78° (ENE) 19:07:39 436.750
DOVE 4 03 Jul 19:20:49 19:24:06 19° 71° (ENE) 19:27:26 437.250
Cubesat XI-IV 03 Jul 19:24:16 19:27:30 15° 269° (W) 19:30:28 437.490
SEEDS 03 Jul 19:25:23 19:26:40 11° 69° (ENE) 19:28:11 437.485
JUGNU 03 Jul 19:31:56 19:36:10 20° 187° (S) 19:40:20 437.505
AAUSAT CUBESAT 2 03 Jul 19:39:06 19:39:58 11° 68° (ENE) 19:41:04 437.432
CUBESAT XI-V 03 Jul 19:42:17 19:45:51 21° 290° (WNW) 19:49:14 437.345
GONETS M04 03 Jul 19:45:09 19:53:25 48° 77° (ENE) 20:01:45
CUSAT 1 03 Jul 19:48:12 19:49:38 13° 266° (W) 19:50:59 437.405
HO-68 03 Jul 19:51:58 19:58:50 54° 71° (ENE) 20:05:46 435.675
COMPASS 1 03 Jul 20:01:48 20:05:09 25° 72° (ENE) 20:08:37 437.405
GOMX 1 03 Jul 20:08:13 20:13:30 81° 257° (WSW) 20:18:29 467.674
CUTE 1.7 + AOD 2 03 Jul 20:08:23 20:12:26 50° 75° (ENE) 20:16:32 437.475
CANX-2 03 Jul 20:11:31 20:15:40 62° 76° (ENE) 20:19:51 2200.000
CINEMA 3 03 Jul 20:12:08 20:16:00 28° 73° (ENE) 20:19:47 145.822/145.860
STRAND 1 03 Jul 20:15:53 20:20:30 34° 289° (WNW) 20:25:02 437.568
PRISM 03 Jul 20:17:45 20:21:11 24° 289° (WNW) 20:24:31 437.425
SRMSAT 03 Jul 20:22:04 20:26:30 22° 182° (S) 20:30:54 437.500
UWE-3 03 Jul 20:24:30 20:26:12 13° 70° (ENE) 20:28:07 435.000/436.395/437.385
BRITE-PL 03 Jul 20:29:01 20:33:58 31° 264° (W) 20:38:39 437.365/2234.400
Cosmos 2499 03 Jul 20:31:41 20:36:32 18° 69° (ENE) 20:42:04 435.465 / 435.565
AUBIESAT-1 03 Jul 20:52:08 20:56:14 42° 104° (ESE) 21:00:35 437.475
DOVE 4 03 Jul 20:57:00 21:01:40 38° 262° (W) 21:06:03 437.250
SEEDS 03 Jul 20:58:04 21:02:05 46° 261° (W) 21:06:07 437.485
CUBEBUG 2 03 Jul 21:05:29 21:09:42 52° 76° (ENE) 21:13:50 437.445
AAUSAT CUBESAT 2 03 Jul 21:11:10 21:15:10 49° 261° (W) 21:19:12 437.432
ZACube-1 03 Jul 21:11:33 21:15:23 35° 74° (ENE) 21:19:13 437.345
UKube-1 03 Jul 21:20:47 21:23:06 15° 69° (ENE) 21:25:37 .
Oscar 11 03 Jul 21:21:33 21:25:51 88° 76° (ENE) 21:30:10 145.826/435.025
JUGNU 03 Jul 21:22:28 21:24:32 12° 196° (SSW) 21:26:28 437.505
M-CUBED/EXP-1 PRIME 03 Jul 21:25:31 21:29:46 66° 288° (WNW) 21:34:18 437.505
DELFI C3 03 Jul 21:32:01 21:36:00 80° 78° (ENE) 21:40:02 145.870
AISAT 03 Jul 21:33:35 21:35:20 12° 68° (ENE) 21:37:19 437.250
HUMSAT D 03 Jul 21:37:04 21:40:32 27° 73° (ENE) 21:44:03 437.325/437.525
COMPASS 1 03 Jul 21:37:42 21:40:49 20° 266° (W) 21:43:50 437.405
HO-68 03 Jul 21:41:18 21:46:56 24° 266° (W) 21:52:19 435.675
GONETS M04 03 Jul 21:42:38 21:49:59 31° 273° (W) 21:57:04
50 SAT 03 Jul 21:44:00 21:46:07 15° 71° (ENE) 21:48:23 437.505
FUNcube-1 03 Jul 21:47:37 21:51:52 83° 261° (W) 21:56:03 145.935
CINEMA 3 03 Jul 21:49:39 21:53:11 21° 265° (W) 21:56:30 145.822/145.860
CUBEBUG 1 03 Jul 21:54:57 21:55:39 10° 67° (ENE) 21:56:39 437.445
UWE-3 03 Jul 21:58:19 22:02:26 43° 261° (W) 22:06:27 435.000/436.395/437.385
ESTCUBE 1 03 Jul 22:01:52 22:04:35 16° 69° (ENE) 22:07:29 437.505/2401.250
SRMSAT 03 Jul 22:11:28 22:15:02 16° 191° (SSW) 22:18:32 437.500
VELOX 1 03 Jul 22:20:28 22:24:39 42° 74° (ENE) 22:28:53 145.980
Cosmos 2499 03 Jul 22:22:32 22:30:28 77° 265° (W) 22:39:00 435.465 / 435.565
UNISAT 6 03 Jul 22:24:05 22:27:55 29° 97° (E) 22:31:52 437.425
AUBIESAT-1 03 Jul 22:28:02 22:30:43 16° 294° (WNW) 22:33:19 437.475
DX 1 03 Jul 22:32:29 22:36:51 69° 258° (WSW) 22:41:14 434.975-435.025
QB50P2 03 Jul 22:40:15 22:42:55 17° 93° (E) 22:45:44 145.880/145.840
POPSAT HIP 1 03 Jul 22:41:12 22:43:49 16° 93° (E) 22:46:35 437.405
ZACube-1 03 Jul 22:49:27 22:51:54 14° 267° (W) 22:54:08 437.345
UKube-1 03 Jul 22:54:51 22:58:56 39° 261° (W) 23:03:01 .
SPROUT 03 Jul 22:57:58 23:00:20 15° 70° (ENE) 23:02:54 437.525
AISAT 03 Jul 23:07:10 23:11:31 50° 260° (W) 23:15:53 437.250
ANTELSAT 03 Jul 23:08:08 23:12:33 80° 283° (WNW) 23:17:03 437.575/2403.000
HUMSAT D 03 Jul 23:13:28 23:16:19 17° 266° (W) 23:19:01 437.325/437.525
50 SAT 03 Jul 23:17:09 23:20:32 28° 263° (W) 23:23:51 437.505
QB50P1 03 Jul 23:19:07 23:23:13 50° 100° (E) 23:27:18 145.935-145.965
TIGRISAT 03 Jul 23:20:53 23:25:12 58° 284° (WNW) 23:29:36 435.000
CUBEBUG 1 03 Jul 23:27:10 23:31:33 59° 259° (W) 23:35:57 437.445
NANOSAT C BR1 03 Jul 23:33:32 23:37:44 77° 102° (ESE) 23:41:55 145.865
ESTCUBE 1 03 Jul 23:36:55 23:41:09 39° 262° (W) 23:45:24 437.505/2401.250
DUCHIFAT 1 03 Jul 23:40:43 23:44:55 88° 283° (WNW) 23:49:06 145.980
TISAT 1 03 Jul 23:40:52 23:44:35 31° 73° (ENE) 23:48:21 437.305
POLYITAN 1 03 Jul 23:44:55 23:49:08 74° 283° (WNW) 23:53:19 437.675
VELOX 1 03 Jul 23:58:58 00:01:26 14° 268° (W) 00:03:39 145.980
BUGSAT 1 04 Jul 00:00:48 00:04:51 78° 283° (WNW) 00:08:51 437.445
UNISAT 6 04 Jul 00:01:17 00:04:33 20° 289° (WNW) 00:07:44 437.425
SWISSCUBE 04 Jul 00:06:13 00:06:55 10° 66° (ENE) 00:07:56 437.505
ITUPSAT 1 04 Jul 00:11:04 00:11:54 11° 66° (ENE) 00:13:04 437.325
QB50P2 04 Jul 00:15:09 00:18:53 30° 287° (WNW) 00:22:34 145.880/145.840
POPSAT HIP 1 04 Jul 00:16:03 00:19:47 31° 287° (WNW) 00:23:27 437.405
RS-15 04 Jul 00:18:45 00:25:39 21° 104° (ESE) 00:33:21 29.354- 29.394
PCSat 04 Jul 00:21:28 00:25:58 27° 55° (NE) 00:30:32 145.827
Cosmos 2499 04 Jul 00:21:32 00:22:48 10° 278° (W) 00:23:14 435.465 / 435.565
SPROUT 04 Jul 00:32:06 00:36:09 38° 262° (W) 00:40:09 437.525
QB50P1 04 Jul 00:57:27 00:58:41 11° 292° (WNW) 00:59:39 145.935-145.965
Oscar 19 04 Jul 01:08:28 01:12:39 26° 95° (E) 01:16:56 437.125/150
TISAT 1 04 Jul 01:17:33 01:20:25 17° 267° (W) 01:23:09 437.305
BEESAT 04 Jul 01:24:00 01:28:44 73° 77° (ENE) 01:33:31 436.000
SO-50 04 Jul 01:26:35 01:31:09 36° 55° (NE) 01:35:38 436.795
SWISSCUBE 04 Jul 01:39:30 01:44:15 69° 259° (W) 01:49:03 437.505
Cosmos 2491 04 Jul 01:39:57 01:47:50 38° 75° (ENE) 01:55:50 435.465 / 435.565
AIST 1 04 Jul 01:40:59 01:42:31 12° 71° (ENE) 01:44:18
ITUPSAT 1 04 Jul 01:44:31 01:49:17 69° 259° (W) 01:54:05 437.325
PCSat 04 Jul 02:04:32 02:09:27 35° 251° (WSW) 02:14:16 145.827
STARS 04 Jul 02:05:58 02:08:51 18° 70° (ENE) 02:11:53 437.465
YUBILEINY 04 Jul 02:09:50 02:16:45 29° 86° (E) 02:23:56 435.215
RS-15 04 Jul 02:26:03 02:36:57 81° 300° (WNW) 02:48:09 29.354- 29.394
JAS-2 04 Jul 02:29:42 02:33:33 16° 91° (E) 02:38:04 435.910
KKS-1 04 Jul 02:47:12 02:51:40 85° 255° (WSW) 02:56:09 437.445
Oscar 19 04 Jul 02:47:33 02:52:00 30° 289° (WNW) 02:56:22 437.125/150
Gurwin Techsat 1B 04 Jul 02:48:02 02:53:22 73° 102° (ESE) 02:58:40 435.225
AO-7 04 Jul 02:55:40 02:59:44 15° 90° (E) 03:04:27 29.400- 29.500
ITAMSAT 1 04 Jul 02:57:16 03:02:31 86° 101° (ESE) 03:07:43 435.822/435.867
MOZHAYETS 4 04 Jul 03:03:55 03:05:24 12° 68° (ENE) 03:07:11
